Location: ?????????
(53.2086°N, 54.0693°E)
Time: 09:14:02
(UTC+00:00)

CSL-04 Rocket - Pass Details

Date: 08 December 2019
Orbit: 807 x 859 km, 99.0° (Epoch: 24 January)

Event Time Altitude Azimuth Distance (km) Brightness Sun altitude
Rises 13:36:30 0° 131° (SE) 3,317 6.5 -12.5°
Reaches altitude 10° 13:39:00 10° 123° (ESE) 2,390 5.7 -12.8°
Maximum altitude 13:43:42 34° 60° (ENE) 1,318 4.2 -13.5°
Drops below altitude 10° 13:48:26 10° 357° (N) 2,415 5.9 -14.1°
Sets 13:50:58 0° 349° (NNW) 3,357 6.7 -14.5°
